W2GRK-15 Weather Reports


Display with metric or nautical units.
time (UTC)temp
F
wind
direction
speed
MPH
gust
MPH
rain 1hr
in
rain 24hr
in
rain mn
in
humidity
%
barometer
mb
20260503191220 58 341 4.0 6.0 0.00 0.00 0.00 32 1011.8
20260503191115 58 337 4.0 8.0 0.00 0.00 0.00 32 1011.9
20260503191027 58 324 3.0 9.0 0.00 0.00 0.00 32 1011.9
20260503190922 59 358 6.0 10.0 0.00 0.00 0.00 31 1011.9
20260503190818 59 336 6.0 11.0 0.00 0.00 0.00 31 1012.0
20260503190750 59 189 5.0 9.0 0.00 0.00 0.00 33 1012.0
20260503190625 59 335 7.0 12.0 0.00 0.00 0.00 32 1011.9
20260503190521 59 328 3.0 13.0 0.00 0.00 0.00 32 1011.9
20260503190416 59 252 6.0 15.0 0.00 0.00 0.00 32 1012.1
20260503190328 59 353 4.0 15.0 0.00 0.00 0.00 32 1011.9
20260503190224 59 341 4.0 12.0 0.00 0.00 0.00 31 1012.1
20260503190120 59 331 5.0 7.0 0.00 0.00 0.00 32 1011.8
20260503190015 58 318 5.0 12.0 0.00 0.00 0.00 33 1012.0
20260503190007 59 344 6.0 12.0 0.00 0.00 0.00 31 1012.0
20260503185822 59 340 8.0 14.0 0.00 0.00 0.00 32 1011.8
20260503185718 59 237 4.0 5.0 0.00 0.00 0.00 33 1011.9
20260503185629 59 336 5.0 10.0 0.00 0.00 0.00 32 1012.1
20260503185525 59 337 5.0 8.0 0.00 0.00 0.00 32 1012.0
20260503185421 59 219 5.0 8.0 0.00 0.00 0.00 33 1012.2
20260503185336 59 148 2.0 5.0 0.00 0.00 0.00 34 1012.2
20260503185248 59 17 3.0 7.0 0.00 0.00 0.00 34 1012.1
20260503185124 60 235 4.0 8.0 0.00 0.00 0.00 33 1012.2
20260503185059 60 343 4.0 6.0 0.00 0.00 0.00 33 1011.9
20260503184951 59 19 3.0 4.0 0.00 0.00 0.00 34 1012.1
20260503184826 59 195 3.0 5.0 0.00 0.00 0.00 34 1012.1
20260503184742 59 203 2.0 3.0 0.00 0.00 0.00 34 1012.1
20260503184618 59 261 3.0 6.0 0.00 0.00 0.00 35 1012.2
20260503184529 58 231 4.0 5.0 0.00 0.00 0.00 36 1012.0
20260503184425 58 91 3.0 5.0 0.00 0.00 0.00 34 1012.1
20260503184321 58 6 3.0 6.0 0.00 0.00 0.00 34 1012.4
20260503184216 58 345 3.0 6.0 0.00 0.00 0.00 33 1012.2
20260503184128 58 221 4.0 4.0 0.00 0.00 0.00 36 1012.2
20260503184023 58 356 3.0 6.0 0.00 0.00 0.00 34 1012.2
20260503183919 58 327 3.0 6.0 0.00 0.00 0.00 34 1012.3
20260503183830 57 256 3.0 4.0 0.00 0.00 0.00 36 1012.4
20260503183726 57 355 5.0 6.0 0.00 0.00 0.00 35 1012.3
20260503183622 57 353 5.0 7.0 0.00 0.00 0.00 34 1012.1
20260503183537 58 225 3.0 4.0 0.00 0.00 0.00 34 1012.4
20260503183429 58 166 3.0 8.0 0.00 0.00 0.00 33 1012.3
20260503183325 58 358 4.0 6.0 0.00 0.00 0.00 33 1012.4
20260503183220 58 320 4.0 6.0 0.00 0.00 0.00 35 1012.3
20260503183116 58 96 3.0 7.0 0.00 0.00 0.00 36 1012.4
20260503183027 57 318 3.0 5.0 0.00 0.00 0.00 35 1012.3
20260503182923 56 318 3.0 6.0 0.00 0.00 0.00 35 1012.1
20260503182818 56 99 1.0 4.0 0.00 0.00 0.00 35 1012.3
20260503182730 57 6 5.0 8.0 0.00 0.00 0.00 34 1012.2
20260503182626 57 352 7.0 12.0 0.00 0.00 0.00 34 1012.4
20260503182521 57 72 4.0 9.0 0.00 0.00 0.00 34 1012.3
20260503182417 57 353 4.0 8.0 0.00 0.00 0.00 34 1012.4
20260503182329 57 312 5.0 12.0 0.00 0.00 0.00 36 1012.2
20260503182225 56 16 2.0 4.0 0.00 0.00 0.00 36 1012.2
20260503182120 56 250 5.0 13.0 0.00 0.00 0.00 36 1012.3
20260503182015 56 343 8.0 13.0 0.00 0.00 0.00 34 1012.3
20260503181927 56 333 3.0 8.0 0.00 0.00 0.00 37 1012.3
20260503181823 56 73 2.0 4.0 0.00 0.00 0.00 37 1012.2
20260503181718 56 330 4.0 7.0 0.00 0.00 0.00 36 1012.1
20260503181630 56 235 3.0 5.0 0.00 0.00 0.00 36 1012.1
20260503181526 56 0 5.0 8.0 0.00 0.00 0.00 34 1012.1
20260503181421 57 11 5.0 8.0 0.00 0.00 0.00 34 1012.3
20260503181337 57 12 6.0 10.0 0.00 0.00 0.00 36 1012.3
20260503181228 57 234 2.0 4.0 0.00 0.00 0.00 36 1012.4
20260503181124 57 334 5.0 8.0 0.00 0.00 0.00 35 1012.1
20260503181020 57 346 2.0 3.0 0.00 0.00 0.00 36 1012.1
20260503180915 58 4 3.0 9.0 0.00 0.00 0.00 34 1012.3
20260503180827 58 2 5.0 9.0 0.00 0.00 0.00 34 1012.4
20260503180743 57 150 3.0 6.0 0.00 0.00 0.00 38 1012.3
20260503180618 57 328 4.0 11.0 0.00 0.00 0.00 35 1012.2
20260503180530 57 337 6.0 10.0 0.00 0.00 0.00 34 1012.2
20260503180425 57 351 4.0 8.0 0.00 0.00 0.00 35 1012.1
20260503180320 57 169 6.0 9.0 0.00 0.00 0.00 34 1012.4
20260503180216 58 285 6.0 14.0 0.00 0.00 0.00 35 1012.2
20260503180128 58 220 3.0 5.0 0.00 0.00 0.00 36 1012.1
20260503180024 58 314 6.0 12.0 0.00 0.00 0.00 34 1012.2
20260503175919 58 320 5.0 8.0 0.00 0.00 0.00 36 1012.3
20260503175851 57 244 4.0 6.0 0.00 0.00 0.00 37 1012.3
20260503175726 58 344 5.0 13.0 0.00 0.00 0.00 35 1012.4
20260503175622 58 12 5.0 12.0 0.00 0.00 0.00 38 1012.5
20260503175517 57 229 2.0 4.0 0.00 0.00 0.00 37 1012.5
20260503175429 57 282 3.0 4.0 0.00 0.00 0.00 40 1012.5
20260503175325 56 238 2.0 4.0 0.00 0.00 0.00 40 1012.2
20260503175220 56 204 3.0 11.0 0.00 0.00 0.00 37 1012.4
20260503175116 56 345 6.0 13.0 0.00 0.00 0.00 36 1012.3
20260503175028 56 9 5.0 9.0 0.00 0.00 0.00 38 1012.2
20260503174923 55 356 3.0 4.0 0.00 0.00 0.00 38 1012.5
20260503174818 55 352 2.0 5.0 0.00 0.00 0.00 37 1012.6
20260503174730 56 316 4.0 8.0 0.00 0.00 0.00 36 1012.4
20260503174626 57 272 4.0 9.0 0.00 0.00 0.00 37 1012.4
20260503174521 57 352 3.0 4.0 0.00 0.00 0.00 37 1012.6
20260503174417 57 353 4.0 6.0 0.00 0.00 0.00 39 1012.6
20260503174349 57 261 4.0 10.0 0.00 0.00 0.00 37 1012.6
20260503174224 57 309 4.0 7.0 0.00 0.00 0.00 39 1012.6
20260503174120 57 269 3.0 5.0 0.00 0.00 0.00 39 1012.5
20260503174015 57 20 4.0 5.0 0.00 0.00 0.00 37 1012.5
20260503173927 56 4 4.0 7.0 0.00 0.00 0.00 38 1012.4
20260503173823 56 5 5.0 6.0 0.00 0.00 0.00 38 1012.6
20260503173718 56 18 3.0 5.0 0.00 0.00 0.00 39 1012.6
20260503173630 56 70 4.0 7.0 0.00 0.00 0.00 38 1012.6
20260503173526 56 350 5.0 9.0 0.00 0.00 0.00 37 1012.6
20260503173421 56 289 4.0 7.0 0.00 0.00 0.00 39 1012.6
20260503173317 56 10 4.0 9.0 0.00 0.00 0.00 37 1012.8
20260503173228 56 265 4.0 7.0 0.00 0.00 0.00 38 1012.8
20260503173124 56 338 6.0 11.0 0.00 0.00 0.00 38 1012.7
20260503173020 56 245 5.0 10.0 0.00 0.00 0.00 39 1012.8
20260503172915 56 336 4.0 6.0 0.00 0.00 0.00 40 1012.7
20260503172827 55 5 3.0 5.0 0.00 0.00 0.00 40 1012.8
20260503172722 55 24 4.0 9.0 0.00 0.00 0.00 39 1012.9
20260503172618 55 38 6.0 9.0 0.00 0.00 0.00 39 1012.8
20260503172530 55 345 5.0 10.0 0.00 0.00 0.00 40 1012.8
20260503172425 54 327 5.0 11.0 0.00 0.00 0.00 40 1012.8
20260503172401 54 202 4.0 6.0 0.00 0.00 0.00 41 1012.7
20260503172228 54 212 2.0 4.0 0.00 0.00 0.00 38 1012.6
20260503172024 53 297 3.0 9.0 0.00 0.00 0.00 40 1012.5
20260503171919 54 312 5.0 11.0 0.00 0.00 0.00 38 1012.8
20260503171831 54 305 4.0 9.0 0.00 0.00 0.00 39 1012.9
20260503171726 54 186 2.0 4.0 0.00 0.00 0.00 40 1012.7
20260503171622 54 187 2.0 4.0 0.00 0.00 0.00 41 1012.5
20260503171518 54 54 2.0 4.0 0.00 0.00 0.00 39 1012.9
20260503171429 54 203 3.0 6.0 0.00 0.00 0.00 40 1012.9
20260503171325 54 234 3.0 6.0 0.00 0.00 0.00 40 1012.9
20260503171221 53 200 4.0 8.0 0.00 0.00 0.00 40 1012.8
20260503171136 53 342 3.0 6.0 0.00 0.00 0.00 40 1012.8
20260503171028 53 49 3.0 6.0 0.00 0.00 0.00 40 1012.9
20260503170943 53 218 3.0 6.0 0.00 0.00 0.00 41 1012.8
20260503170819 53 356 6.0 11.0 0.00 0.00 0.00 39 1012.7
20260503170730 53 338 8.0 12.0 0.00 0.00 0.00 39 1012.7
20260503170646 54 329 5.0 9.0 0.00 0.00 0.00 40 1012.8
20260503170522 54 332 6.0 14.0 0.00 0.00 0.00 39 1012.7
20260503170417 55 329 4.0 6.0 0.00 0.00 0.00 39 1012.9
20260503170329 55 168 2.0 5.0 0.00 0.00 0.00 40 1013.1
20260503170224 54 356 4.0 5.0 0.00 0.00 0.00 40 1012.7
20260503170120 54 20 3.0 5.0 0.00 0.00 0.00 41 1012.9
20260503160216 52 350 4.0 9.0 0.00 0.00 0.00 42 1013.4
20260503160128 53 341 6.0 9.0 0.00 0.00 0.00 41 1013.2
20260503150925 53 17 5.0 8.0 0.00 0.00 0.00 39 1013.4
20260503150820 53 355 5.0 7.0 0.00 0.00 0.00 40 1013.3
20260503150716 52 315 3.0 5.0 0.00 0.00 0.00 41 1013.4
20260503150628 52 38 2.0 9.0 0.00 0.00 0.00 40 1013.3
20260503150523 52 326 4.0 10.0 0.00 0.00 0.00 41 1013.4
20260503150419 52 30 5.0 6.0 0.00 0.00 0.00 41 1013.5
20260503150331 52 313 5.0 8.0 0.00 0.00 0.00 41 1013.5
20260503150226 52 355 5.0 10.0 0.00 0.00 0.00 41 1013.5
20260503150142 52 357 5.0 10.0 0.00 0.00 0.00 40 1013.1
20260503140218 52 69 3.0 4.0 0.00 0.00 0.00 45 1013.3
20260503140130 52 334 4.0 12.0 0.00 0.00 0.00 45 1013.2
20260503131326 50 188 2.0 4.0 0.00 0.00 0.00 52 1013.3
20260503131221 50 4 4.0 6.0 0.00 0.00 0.00 51 1013.2
20260503131117 50 27 4.0 8.0 0.00 0.00 0.00 50 1013.2
20260503131029 50 52 4.0 6.0 0.00 0.00 0.00 52 1013.3
20260503130924 50 33 4.0 6.0 0.00 0.00 0.00 51 1013.2
20260503130820 49 146 3.0 5.0 0.00 0.00 0.00 52 1013.3
20260503130715 50 33 8.0 14.0 0.00 0.00 0.00 51 1013.3
20260503130627 50 20 5.0 7.0 0.00 0.00 0.00 51 1013.3
20260503130542 50 26 3.0 5.0 0.00 0.00 0.00 54 1013.1
20260503130418 49 293 3.0 4.0 0.00 0.00 0.00 53 1013.3
20260503130330 49 23 2.0 5.0 0.00 0.00 0.00 53 1013.3
20260503130225 49 325 3.0 5.0 0.00 0.00 0.00 52 1013.4
20260503130121 49 356 3.0 7.0 0.00 0.00 0.00 52 1013.1
20260503120128 46 346 4.0 7.0 0.00 0.00 0.00 57 1013.1
20260503110817 45 330 3.0 4.0 0.00 0.00 0.00 57 1012.9
20260503110729 45 333 2.0 5.0 0.00 0.00 0.00 58 1012.8
20260503110625 45 343 3.0 6.0 0.00 0.00 0.00 57 1012.8
20260503110520 45 340 3.0 4.0 0.00 0.00 0.00 57 1012.6
20260503110415 45 38 1.0 3.0 0.00 0.00 0.00 58 1012.6
20260503110327 45 186 1.0 4.0 0.00 0.00 0.00 58 1012.6
20260503110223 45 5 3.0 5.0 0.00 0.00 0.00 57 1012.6
20260503110118 45 56 2.0 3.0 0.00 0.00 0.00 58 1012.6
20260503100250 45 5 3.0 4.0 0.00 0.00 0.00 55 1012.1
20260503100125 45 41 3.0 5.0 0.00 0.00 0.00 55 1011.9
20260503090450 46 355 2.0 4.0 0.00 0.02 0.00 51 1011.5
20260503090346 46 324 2.0 4.0 0.00 0.02 0.00 52 1011.5
20260503090242 46 17 3.0 5.0 0.00 0.02 0.00 51 1011.5
20260503090117 46 19 4.0 5.0 0.00 0.02 0.00 51 1011.3
20260503081626 47 25 4.0 7.0 0.00 0.02 0.00 50 1011.4
20260503081541 47 9 3.0 5.0 0.00 0.02 0.00 51 1011.2
20260503081437 47 54 3.0 4.0 0.00 0.02 0.00 51 1011.3
20260503081329 47 24 3.0 5.0 0.00 0.02 0.00 51 1011.3
20260503081220 47 94 2.0 6.0 0.00 0.02 0.00 51 1011.4
20260503081139 47 40 2.0 6.0 0.00 0.02 0.00 51 1011.2
20260503081015 47 271 2.0 4.0 0.00 0.02 0.00 51 1011.2
20260503080947 47 304 2.0 2.0 0.00 0.02 0.00 51 1011.2
20260503080823 47 1 2.0 5.0 0.00 0.02 0.00 51 1011.2
20260503080738 47 13 4.0 6.0 0.00 0.02 0.00 51 1011.2
20260503080630 47 49 2.0 4.0 0.00 0.02 0.00 51 1011.3
20260503080525 47 49 1.0 3.0 0.00 0.02 0.00 52 1011.2
20260503080421 47 21 2.0 3.0 0.00 0.02 0.00 52 1011.2
20260503080317 47 11 3.0 4.0 0.00 0.02 0.00 52 1011.2
20260503080228 47 44 4.0 5.0 0.00 0.02 0.00 52 1011.4
20260503080124 47 351 2.0 4.0 0.00 0.02 0.00 52 1011.3
20260503072926 47 14 1.0 2.0 0.00 0.02 0.00 52 1011.1
20260503072822 47 149 1.0 2.0 0.00 0.02 0.00 52 1011.1
20260503072717 47 56 1.0 2.0 0.00 0.02 0.00 52 1011.2
20260503072649 47 110 2.0 3.0 0.00 0.02 0.00 51 1011.2
20260503072525 47 2 2.0 3.0 0.00 0.02 0.00 52 1011.2
20260503072421 47 3 1.0 2.0 0.00 0.02 0.00 52 1011.3
20260503072316 47 36 2.0 3.0 0.00 0.02 0.00 52 1011.3
20260503072307 47 275 1.0 2.0 0.00 0.02 0.00 52 1011.2
20260503072123 47 45 1.0 2.0 0.00 0.02 0.00 52 1011.4
20260503072019 47 18 1.0 2.0 0.00 0.02 0.00 52 1011.2
20260503071930 47 54 1.0 2.0 0.00 0.02 0.00 52 1011.3
20260503071825 47 78 0.0 2.0 0.00 0.02 0.00 52 1011.3
20260503071721 47 86 0.0 2.0 0.00 0.02 0.00 52 1011.3
20260503071637 47 0.0 1.0 0.00 0.02 0.00 52 1011.4
20260503071528 47 0.0 1.0 0.00 0.02 0.00 51 1011.2
20260503071424 47 0.0 1.0 0.00 0.02 0.00 52 1011.1
20260503071319 47 83 0.0 2.0 0.00 0.02 0.00 51 1011.2
20260503071231 47 13 1.0 2.0 0.00 0.02 0.00 51 1011.1
20260503071127 47 16 0.0 2.0 0.00 0.02 0.00 51 1011.1
20260503071042 47 0.0 1.0 0.00 0.02 0.00 51 1011.2
20260503070917 47 0.0 1.0 0.00 0.02 0.00 51 1011.2
20260503070829 47 18 0.0 1.0 0.00 0.02 0.00 51 1011.2
20260503070725 47 146 1.0 2.0 0.00 0.02 0.00 50 1011.2
20260503070620 47 14 1.0 2.0 0.00 0.02 0.00 50 1011.3
20260503070516 47 32 1.0 3.0 0.00 0.02 0.00 51 1011.3
20260503070427 47 3 0.0 2.0 0.00 0.02 0.00 50 1011.3
20260503070323 47 35 1.0 2.0 0.00 0.02 0.00 50 1011.1
20260503070219 47 60 1.0 2.0 0.00 0.02 0.00 50 1011.3
20260503070150 47 49 1.0 2.0 0.00 0.02 0.00 51 1011.4
20260503070106 47 67 1.0 2.0 0.00 0.02 0.00 50 1011.3
20260503060226 49 298 0.0 2.0 0.00 0.03 0.00 46 1011.3
20260503060141 49 2 2.0 3.0 0.00 0.03 0.00 46 1011.7
20260503055125 50 67 2.0 3.0 0.00 0.03 0.00 46 1011.4
20260503055021 50 33 3.0 4.0 0.00 0.03 0.00 45 1011.8
20260503054916 50 45 2.0 4.0 0.00 0.03 0.00 46 1011.5
20260503054828 50 346 2.0 3.0 0.00 0.03 0.00 46 1011.7
20260503054723 50 71 1.0 2.0 0.00 0.03 0.00 46 1011.4
20260503054619 50 58 2.0 2.0 0.00 0.03 0.00 47 1011.4
20260503054530 50 206 0.0 1.0 0.00 0.03 0.00 46 1011.5
20260503054426 50 0.0 1.0 0.00 0.03 0.00 46 1011.7
20260503054321 50 5 2.0 3.0 0.00 0.03 0.00 46 1011.4
20260503054217 50 3 1.0 2.0 0.00 0.03 0.00 46 1011.6
20260503054128 50 21 1.0 2.0 0.00 0.03 0.00 46 1011.6
20260503054024 50 38 2.0 3.0 0.00 0.03 0.00 45 1011.5
20260503053920 50 348 2.0 2.0 0.00 0.03 0.00 46 1011.5
20260503053815 50 81 1.0 2.0 0.00 0.03 0.00 46 1011.5
20260503053727 50 36 1.0 2.0 0.00 0.03 0.00 46 1011.5
20260503053642 50 356 2.0 3.0 0.00 0.03 0.00 45 1011.7
20260503053558 50 336 3.0 4.0 0.00 0.03 0.00 45 1011.7
20260503053430 50 359 2.0 4.0 0.00 0.03 0.00 47 1011.7
20260503053325 50 355 1.0 2.0 0.00 0.03 0.00 45 1011.6
20260503053241 50 39 1.0 2.0 0.00 0.03 0.00 46 1011.6
20260503053116 50 344 1.0 4.0 0.00 0.03 0.00 46 1011.6
20260503053028 50 69 2.0 3.0 0.00 0.03 0.00 46 1011.7
20260503052924 50 68 1.0 2.0 0.00 0.03 0.00 46 1011.4
20260503052819 50 56 2.0 3.0 0.00 0.03 0.00 45 1011.5
20260503052731 50 46 2.0 3.0 0.00 0.03 0.00 46 1011.5
20260503052646 50 57 2.0 3.0 0.00 0.03 0.00 46 1011.4
20260503052602 50 57 1.0 2.0 0.00 0.03 0.00 46 1011.5
20260503052417 50 96 1.0 1.0 0.00 0.03 0.00 46 1011.7
20260503052329 50 48 1.0 3.0 0.00 0.03 0.00 45 1011.5
20260503052225 50 15 1.0 3.0 0.00 0.03 0.00 45 1011.5
20260503052120 50 47 1.0 4.0 0.00 0.03 0.00 45 1011.6
20260503052016 50 38 3.0 5.0 0.00 0.03 0.00 45 1011.6
20260503051948 50 80 1.0 2.0 0.00 0.03 0.00 46 1011.6
20260503051823 50 69 3.0 5.0 0.00 0.03 0.00 46 1011.7
20260503051719 50 59 2.0 3.0 0.00 0.03 0.00 46 1011.9
20260503051630 50 55 2.0 4.0 0.00 0.03 0.00 46 1011.8
20260503051526 50 317 0.0 2.0 0.00 0.03 0.00 46 1011.6
20260503051422 50 143 1.0 2.0 0.00 0.03 0.00 46 1011.8
20260503051317 50 6 0.0 1.0 0.00 0.03 0.00 46 1011.8
20260503051249 50 0.0 2.0 0.00 0.03 0.00 46 1011.5
20260503051124 50 159 1.0 2.0 0.00 0.03 0.00 45 1011.6
20260503051040 51 100 1.0 1.0 0.00 0.03 0.00 45 1011.7
20260503050916 50 34 1.0 3.0 0.00 0.03 0.00 45 1011.6
20260503050827 50 53 3.0 4.0 0.00 0.03 0.00 45 1011.8
20260503050723 50 47 0.0 2.0 0.00 0.03 0.00 46 1011.7
20260503050638 50 98 1.0 2.0 0.00 0.03 0.00 46 1011.7
20260503050530 50 41 1.0 2.0 0.00 0.03 0.00 46 1011.9
20260503050426 51 182 1.0 2.0 0.00 0.03 0.00 46 1011.6
20260503050321 51 37 2.0 2.0 0.00 0.03 0.00 45 1011.8
20260503050217 51 163 1.0 2.0 0.00 0.03 0.00 45 1011.9
20260503050128 51 46 0.0 2.0 0.00 0.03 0.00 45 1011.8
20260503050024 51 350 1.0 2.0 0.00 0.03 0.00 45 1011.7
20260503045919 51 81 1.0 2.0 0.00 0.03 0.00 44 1011.8
20260503045815 51 35 2.0 4.0 0.00 0.03 0.00 45 1011.9
20260503045727 51 89 1.0 2.0 0.00 0.03 0.00 45 1011.9
20260503045622 51 38 1.0 2.0 0.00 0.03 0.00 44 1012.0
20260503045518 51 66 2.0 5.0 0.00 0.03 0.00 44 1011.8
20260503045430 51 29 2.0 2.0 0.00 0.03 0.00 45 1011.9
20260503045325 51 53 0.0 2.0 0.00 0.03 0.00 45 1011.9
20260503045221 51 30 1.0 2.0 0.00 0.03 0.00 45 1012.0
20260503045116 51 120 1.0 2.0 0.00 0.03 0.00 45 1012.0
20260503045028 51 11 1.0 3.0 0.00 0.03 0.00 44 1011.9
20260503044924 51 355 1.0 3.0 0.00 0.03 0.00 44 1012.1
20260503044819 51 37 2.0 3.0 0.00 0.03 0.00 45 1011.9
20260503044731 51 66 2.0 3.0 0.00 0.03 0.00 45 1012.0
20260503044646 51 353 2.0 3.0 0.00 0.03 0.00 45 1012.0
20260503044542 51 96 1.0 3.0 0.00 0.03 0.00 45 1012.0
20260503044417 51 56 0.0 2.0 0.00 0.03 0.00 45 1012.0
20260503044329 51 93 1.0 2.0 0.00 0.03 0.00 45 1012.1
20260503044224 51 0.0 3.0 0.00 0.03 0.00 44 1011.9
20260503044140 51 95 1.0 2.0 0.00 0.03 0.00 45 1011.8
20260503044016 51 48 1.0 3.0 0.00 0.03 0.00 45 1012.0
20260503043927 51 44 2.0 4.0 0.00 0.03 0.00 44 1012.1
20260503043823 51 50 2.0 2.0 0.00 0.03 0.00 44 1012.0
20260503043718 51 11 2.0 3.0 0.00 0.03 0.00 44 1012.0
20260503043630 51 34 2.0 4.0 0.00 0.03 0.00 44 1012.0
20260503043526 51 56 1.0 5.0 0.00 0.03 0.00 44 1011.9
20260503043421 51 244 2.0 3.0 0.00 0.03 0.00 44 1012.0
20260503043317 51 352 3.0 5.0 0.00 0.03 0.00 44 1011.9
20260503043249 51 15 2.0 5.0 0.00 0.03 0.00 44 1011.9
20260503043124 51 79 1.0 3.0 0.00 0.03 0.00 44 1011.8
20260503043040 51 40 1.0 2.0 0.00 0.03 0.00 44 1011.8
20260503042915 51 16 0.0 3.0 0.00 0.03 0.00 45 1011.8
20260503042827 51 49 2.0 3.0 0.00 0.03 0.00 45 1012.0
20260503042722 51 173 0.0 3.0 0.00 0.03 0.00 45 1012.0
20260503042638 51 340 2.0 3.0 0.00 0.03 0.00 44 1012.0
20260503042530 51 55 2.0 3.0 0.00 0.03 0.00 44 1012.0
20260503042425 51 108 2.0 2.0 0.00 0.03 0.00 45 1012.0
20260503042341 51 17 1.0 2.0 0.00 0.03 0.00 45 1012.0
20260503042217 51 143 2.0 3.0 0.00 0.03 0.00 45 1012.1
20260503042128 51 77 0.0 2.0 0.00 0.03 0.00 45 1012.1
20260503042024 51 73 1.0 2.0 0.00 0.03 0.00 44 1012.1
20260503041919 51 34 1.0 2.0 0.00 0.03 0.00 44 1011.8
20260503041815 51 3 1.0 2.0 0.00 0.03 0.00 44 1011.9
20260503041727 51 40 1.0 2.0 0.00 0.03 0.00 45 1012.0
20260503041622 51 116 1.0 2.0 0.00 0.03 0.00 45 1012.1
20260503041518 51 67 1.0 2.0 0.00 0.03 0.00 44 1012.0
20260503041430 51 146 0.0 2.0 0.00 0.03 0.00 45 1012.0
20260503041325 51 154 1.0 2.0 0.00 0.03 0.00 44 1012.1
20260503041221 51 18 2.0 2.0 0.00 0.03 0.00 44 1011.7
20260503041117 51 198 1.0 3.0 0.00 0.03 0.00 45 1011.9
20260503041028 51 31 0.0 2.0 0.00 0.03 0.00 45 1012.0
20260503040924 51 46 1.0 3.0 0.00 0.03 0.00 44 1012.1
20260503040819 51 209 1.0 2.0 0.00 0.03 0.00 44 1012.3
20260503040731 51 42 2.0 3.0 0.00 0.03 0.00 43 1012.2
20260503040626 51 156 0.0 2.0 0.00 0.03 0.00 44 1012.1
20260503040522 51 11 1.0 2.0 0.00 0.03 0.00 43 1011.9
20260503040418 51 10 2.0 2.0 0.00 0.03 0.00 43 1011.9
20260503040329 51 61 1.0 2.0 0.00 0.03 0.00 43 1012.0
20260503040225 51 26 1.0 2.0 0.00 0.03 0.00 43 1012.0
20260503040121 51 139 2.0 3.0 0.00 0.03 0.00 43 1012.2
20260503040016 51 19 1.0 2.0 0.00 0.03 0.00 43 1012.1
20260503035928 51 49 2.0 4.0 0.00 0.03 0.03 43 1011.9
20260503035843 51 340 1.0 3.0 0.00 0.03 0.03 43 1012.0
20260503035719 51 26 1.0 2.0 0.00 0.03 0.03 43 1012.1
20260503035631 51 38 2.0 4.0 0.00 0.03 0.03 43 1012.0
20260503035526 51 23 2.0 3.0 0.00 0.03 0.03 44 1012.2
20260503035421 51 40 1.0 3.0 0.00 0.03 0.03 44 1012.0
20260503035317 51 169 0.0 2.0 0.00 0.03 0.03 44 1011.9
20260503035229 51 52 1.0 3.0 0.00 0.03 0.03 44 1012.1
20260503035124 51 66 1.0 3.0 0.00 0.03 0.03 43 1012.0
20260503035040 51 57 0.0 1.0 0.00 0.03 0.03 43 1012.0
20260503034916 51 44 1.0 2.0 0.00 0.03 0.03 44 1012.0
20260503034827 51 85 0.0 1.0 0.00 0.03 0.03 44 1012.0
20260503034723 51 70 1.0 2.0 0.00 0.03 0.03 44 1011.9
20260503034618 51 342 1.0 1.0 0.00 0.03 0.03 43 1011.9
20260503034550 51 16 1.0 2.0 0.00 0.03 0.03 43 1012.0
20260503034426 51 25 1.0 2.0 0.00 0.03 0.03 44 1011.9
20260503034321 51 56 1.0 2.0 0.00 0.03 0.03 43 1012.0
20260503034217 51 0.0 0.0 0.00 0.03 0.03 43 1011.9
20260503034128 51 0.0 0.0 0.00 0.03 0.03 44 1011.8
20260503034024 51 0.0 1.0 0.00 0.03 0.03 43 1012.1
20260503033920 51 37 0.0 1.0 0.00 0.03 0.03 43 1012.0
20260503033815 51 50 1.0 1.0 0.00 0.03 0.03 44 1011.8
20260503033727 51 48 1.0 3.0 0.00 0.03 0.03 43 1012.0
20260503033622 51 20 1.0 2.0 0.00 0.03 0.03 43 1011.9
20260503033518 51 100 1.0 2.0 0.00 0.03 0.03 43 1011.8
20260503033430 52 133 2.0 2.0 0.00 0.03 0.03 43 1011.7
20260503033325 52 16 1.0 2.0 0.00 0.03 0.03 43 1011.7
20260503033241 52 67 1.0 4.0 0.00 0.03 0.03 43 1011.8
20260503033116 51 45 2.0 4.0 0.00 0.03 0.03 43 1011.7
20260503033108 51 55 2.0 3.0 0.00 0.03 0.03 43 1012.1
20260503032924 51 5 1.0 2.0 0.00 0.03 0.03 43 1011.7
20260503032819 51 96 2.0 3.0 0.00 0.03 0.03 43 1011.9
20260503032715 51 10 1.0 2.0 0.00 0.03 0.03 43 1011.9
20260503032627 51 172 0.0 2.0 0.00 0.03 0.03 43 1011.9
20260503032522 51 21 1.0 3.0 0.00 0.03 0.03 43 1011.8
20260503032418 52 125 1.0 2.0 0.00 0.03 0.03 43 1012.0
20260503032329 52 164 0.0 2.0 0.00 0.03 0.03 43 1011.9
20260503032225 52 315 0.0 2.0 0.00 0.03 0.03 44 1012.0
20260503032120 52 68 1.0 2.0 0.00 0.03 0.03 43 1011.8
20260503032016 52 114 0.0 1.0 0.00 0.03 0.03 43 1011.9
20260503031948 52 69 1.0 2.0 0.00 0.03 0.03 43 1011.9
20260503031823 52 3 1.0 2.0 0.00 0.03 0.03 43 1011.8
20260503031719 52 70 1.0 2.0 0.00 0.03 0.03 43 1011.9
20260503031711 52 1 1.0 2.0 0.00 0.03 0.03 43 1012.0
20260503031526 52 47 1.0 2.0 0.00 0.03 0.03 43 1012.0
20260503031421 52 323 1.0 2.0 0.00 0.03 0.03 43 1011.9
20260503031317 52 342 1.0 2.0 0.00 0.03 0.03 43 1011.8
20260503031229 52 57 1.0 2.0 0.00 0.03 0.03 42 1011.8
20260503031144 52 27 1.0 2.0 0.00 0.03 0.03 43 1011.9
20260503031040 52 99 1.0 2.0 0.00 0.03 0.03 43 1011.8
20260503030915 52 148 1.0 2.0 0.00 0.03 0.03 44 1011.8
20260503030827 52 89 1.0 2.0 0.00 0.03 0.03 43 1011.9
20260503030742 52 30 0.0 2.0 0.00 0.03 0.03 42 1011.9
20260503030618 52 54 1.0 2.0 0.00 0.03 0.03 43 1011.9
20260503030530 52 154 1.0 2.0 0.00 0.03 0.03 43 1011.9
20260503030425 52 313 0.0 1.0 0.00 0.03 0.03 42 1012.0
20260503030321 52 35 1.0 2.0 0.00 0.03 0.03 42 1011.8
20260503030216 52 47 1.0 2.0 0.00 0.03 0.03 42 1011.8
20260503030128 52 39 1.0 2.0 0.00 0.03 0.03 42 1012.0
20260503030024 52 50 1.0 3.0 0.00 0.03 0.03 42 1012.0
20260503025919 52 126 1.0 2.0 0.00 0.03 0.03 42 1011.9
20260503025815 52 242 1.0 2.0 0.00 0.03 0.03 41 1011.9
20260503025727 52 70 1.0 2.0 0.00 0.03 0.03 42 1011.8
20260503025622 52 86 1.0 2.0 0.00 0.03 0.03 42 1012.0
20260503025518 53 80 1.0 1.0 0.00 0.03 0.03 42 1011.7
20260503025429 53 36 0.0 1.0 0.00 0.03 0.03 41 1011.8
20260503025325 53 325 0.0 2.0 0.00 0.03 0.03 41 1011.8
20260503025221 53 144 1.0 2.0 0.00 0.03 0.03 41 1011.7
20260503025116 53 30 2.0 5.0 0.00 0.03 0.03 40 1011.9
20260503025028 53 12 3.0 4.0 0.00 0.03 0.03 40 1011.8
20260503024923 53 14 1.0 2.0 0.00 0.03 0.03 40 1012.0
20260503024819 53 38 1.0 3.0 0.00 0.03 0.03 41 1011.9
20260503024731 53 53 3.0 6.0 0.00 0.03 0.03 40 1011.9
20260503024626 53 22 2.0 5.0 0.00 0.03 0.03 41 1011.8
20260503024602 53 61 2.0 4.0 0.00 0.03 0.03 41 1011.7
20260503024437 53 49 2.0 3.0 0.00 0.03 0.03 41 1011.8
20260503024329 53 32 2.0 4.0 0.00 0.03 0.03 41 1011.9
20260503024245 53 49 2.0 2.0 0.00 0.03 0.03 41 1011.8
20260503024120 53 10 1.0 3.0 0.00 0.03 0.03 41 1012.0
20260503024016 53 75 1.0 4.0 0.00 0.03 0.03 41 1011.9
20260503023927 53 11 3.0 4.0 0.00 0.03 0.03 41 1011.8
20260503023843 53 37 2.0 5.0 0.00 0.03 0.03 41 1011.8
20260503023718 53 1 1.0 2.0 0.00 0.03 0.03 40 1011.7
20260503023630 53 3 2.0 4.0 0.00 0.03 0.03 41 1011.7
20260503023526 53 27 2.0 4.0 0.00 0.03 0.03 40 1011.9
20260503023422 53 67 2.0 3.0 0.00 0.03 0.03 40 1011.8
20260503023317 53 18 1.0 5.0 0.00 0.03 0.03 41 1011.8
20260503023229 53 4 3.0 4.0 0.00 0.03 0.03 40 1012.0
20260503023124 53 352 1.0 2.0 0.00 0.03 0.03 41 1012.0
20260503023040 53 3 1.0 2.0 0.00 0.03 0.03 41 1011.8
20260503022915 53 41 1.0 2.0 0.00 0.03 0.03 41 1011.8
20260503022827 53 326 2.0 4.0 0.00 0.03 0.03 41 1011.9
20260503022722 53 155 2.0 2.0 0.00 0.03 0.03 41 1011.7
20260503022618 53 358 2.0 4.0 0.00 0.03 0.03 40 1011.7
20260503022530 53 243 2.0 4.0 0.00 0.03 0.03 40 1011.7
20260503022425 53 141 1.0 4.0 0.00 0.03 0.03 40 1011.7
20260503022321 53 85 1.0 2.0 0.00 0.03 0.03 41 1011.7
20260503022217 53 23 2.0 4.0 0.00 0.03 0.03 41 1011.7
20260503022128 53 335 2.0 3.0 0.00 0.03 0.03 41 1011.7
20260503022024 53 358 1.0 3.0 0.00 0.03 0.03 41 1011.7
20260503021919 53 197 2.0 3.0 0.00 0.03 0.03 41 1011.8
20260503021815 53 266 1.0 2.0 0.00 0.03 0.03 41 1011.7
20260503021807 53 27 1.0 3.0 0.00 0.03 0.03 40 1011.7
20260503021622 54 19 2.0 3.0 0.00 0.03 0.03 40 1011.7
20260503021518 54 108 1.0 2.0 0.00 0.03 0.03 41 1011.7
20260503021429 54 29 1.0 4.0 0.00 0.03 0.03 40 1011.8
20260503021325 54 51 2.0 6.0 0.00 0.03 0.03 41 1011.7
20260503021221 54 54 4.0 8.0 0.00 0.03 0.03 41 1011.7
20260503021116 54 16 1.0 2.0 0.00 0.03 0.03 40 1011.7
20260503021028 54 359 2.0 3.0 0.00 0.03 0.03 40 1011.7
20260503020923 54 26 3.0 4.0 0.00 0.03 0.03 40 1011.7
20260503020819 54 108 2.0 3.0 0.00 0.03 0.03 41 1011.7
20260503020731 54 51 1.0 3.0 0.00 0.03 0.03 41 1011.9
20260503020626 54 35 1.0 3.0 0.00 0.03 0.03 41 1011.9
20260503020542 54 28 2.0 3.0 0.00 0.03 0.03 41 1012.0
20260503020437 54 13 1.0 2.0 0.00 0.03 0.03 41 1012.0
20260503020329 54 53 2.0 2.0 0.00 0.03 0.03 41 1012.0
20260503020224 54 37 2.0 3.0 0.00 0.03 0.03 41 1011.9
20260503020120 54 10 2.0 4.0 0.00 0.03 0.03 41 1011.9
20260503020036 54 36 2.0 4.0 0.00 0.03 0.03 41 1011.9
20260503015927 54 360 2.0 3.0 0.00 0.03 0.03 41 1012.0
20260503015823 54 49 2.0 3.0 0.00 0.03 0.03 41 1012.0
20260503015718 54 208 1.0 2.0 0.00 0.03 0.03 41 1011.9
20260503015630 54 34 2.0 2.0 0.00 0.03 0.03 41 1011.9
20260503015526 54 11 1.0 2.0 0.00 0.03 0.03 41 1012.0
20260503015421 54 102 1.0 2.0 0.00 0.03 0.03 42 1011.7
20260503015317 54 172 0.0 2.0 0.00 0.03 0.03 41 1011.9
20260503015248 54 56 2.0 2.0 0.00 0.03 0.03 40 1011.8
20260503015124 54 86 1.0 2.0 0.00 0.03 0.03 41 1011.7
20260503015020 54 139 0.0 2.0 0.00 0.03 0.03 40 1011.7
20260503014915 54 21 2.0 3.0 0.00 0.03 0.03 40 1011.8
20260503014827 54 50 1.0 3.0 0.00 0.03 0.03 40 1011.9
20260503014722 54 39 1.0 3.0 0.00 0.03 0.03 40 1012.0
20260503014618 54 34 1.0 2.0 0.00 0.03 0.03 41 1011.9
20260503014530 54 31 1.0 4.0 0.00 0.03 0.03 41 1011.8
20260503014425 54 37 1.0 2.0 0.00 0.03 0.03 41 1012.1
20260503014321 54 61 2.0 2.0 0.00 0.03 0.03 40 1012.0
20260503014216 54 23 2.0 3.0 0.00 0.03 0.03 40 1012.0
20260503014148 54 120 1.0 2.0 0.00 0.03 0.03 41 1011.8
20260503014023 54 353 1.0 2.0 0.00 0.03 0.03 40 1012.1
20260503013919 54 48 2.0 3.0 0.00 0.03 0.03 40 1012.1
20260503013831 54 51 1.0 3.0 0.00 0.03 0.03 40 1012.0
20260503013726 54 12 1.0 2.0 0.00 0.03 0.03 41 1012.0
20260503013622 54 310 2.0 2.0 0.00 0.03 0.03 41 1012.1
20260503013518 54 77 1.0 3.0 0.00 0.03 0.03 40 1012.0
20260503013429 54 31 2.0 4.0 0.00 0.03 0.03 40 1012.0
20260503013325 54 56 1.0 2.0 0.00 0.03 0.03 40 1011.9
20260503013240 54 66 1.0 2.0 0.00 0.03 0.03 39 1012.1
20260503013116 54 29 2.0 3.0 0.00 0.03 0.03 40 1012.0
20260503013027 54 132 2.0 3.0 0.00 0.03 0.03 40 1011.9
20260503012923 54 22 1.0 2.0 0.00 0.03 0.03 40 1011.9
20260503012819 55 180 1.0 2.0 0.00 0.03 0.03 41 1012.0
20260503012750 55 25 1.0 2.0 0.00 0.03 0.03 40 1011.9
20260503012626 55 354 1.0 4.0 0.00 0.03 0.03 39 1012.1
20260503012521 55 54 1.0 3.0 0.00 0.03 0.03 40 1011.9
20260503012417 55 131 1.0 2.0 0.00 0.03 0.03 40 1012.0
20260503012349 55 33 2.0 3.0 0.00 0.03 0.03 40 1011.9
20260503012225 55 34 2.0 4.0 0.00 0.03 0.03 40 1012.0
20260503012120 55 354 2.0 3.0 0.00 0.03 0.03 41 1012.0
20260503012016 55 156 1.0 2.0 0.00 0.03 0.03 41 1012.0
20260503011947 55 59 1.0 2.0 0.00 0.03 0.03 41 1012.0
20260503011823 55 99 1.0 2.0 0.00 0.03 0.03 40 1012.0
20260503011719 55 117 2.0 2.0 0.00 0.03 0.03 40 1011.9
20260503011630 55 27 1.0 2.0 0.00 0.03 0.03 40 1011.9
20260503011526 55 51 1.0 2.0 0.00 0.03 0.03 40 1012.0
20260503011421 55 73 1.0 2.0 0.00 0.03 0.03 40 1011.9
20260503011317 55 120 1.0 3.0 0.00 0.03 0.03 40 1012.0
20260503011228 55 57 1.0 3.0 0.00 0.03 0.03 40 1011.7
20260503011124 55 20 1.0 2.0 0.00 0.03 0.03 40 1011.9
20260503011020 55 69 1.0 2.0 0.00 0.03 0.03 40 1011.8
20260503010935 55 31 1.0 2.0 0.00 0.03 0.03 40 1012.0
20260503010827 55 56 1.0 3.0 0.00 0.03 0.03 39 1011.7
20260503010722 55 353 2.0 4.0 0.00 0.03 0.03 40 1011.7
20260503010618 55 54 1.0 2.0 0.00 0.03 0.03 40 1011.8
20260503010530 55 11 1.0 2.0 0.00 0.03 0.03 40 1011.8
20260503010425 55 31 2.0 2.0 0.00 0.03 0.03 40 1011.9
20260503010321 55 338 1.0 3.0 0.00 0.03 0.03 40 1011.9
20260503010217 55 101 2.0 2.0 0.00 0.03 0.03 40 1011.8
20260503010148 55 154 1.0 2.0 0.00 0.03 0.03 40 1011.8
20260503010043 55 61 1.0 2.0 0.00 0.03 0.03 39 1011.9
20260503005919 55 67 1.0 3.0 0.00 0.03 0.03 39 1011.7
20260503005831 55 341 3.0 4.0 0.00 0.03 0.03 40 1011.8
20260503005747 55 151 0.0 2.0 0.00 0.03 0.03 41 1011.8
20260503005642 55 87 1.0 2.0 0.00 0.03 0.03 41 1011.7
20260503005518 55 354 0.0 2.0 0.00 0.03 0.03 40 1011.6
20260503005449 55 80 1.0 2.0 0.00 0.03 0.03 39 1011.7
20260503005325 55 56 0.0 1.0 0.00 0.03 0.03 39 1011.6
20260503005221 55 11 0.0 2.0 0.00 0.03 0.03 39 1011.6
20260503005116 55 1 1.0 2.0 0.00 0.03 0.03 40 1011.6
20260503005028 55 37 1.0 2.0 0.00 0.03 0.03 40 1011.6
20260503004923 55 24 1.0 3.0 0.00 0.03 0.03 40 1011.6
20260503004819 55 0 1.0 2.0 0.00 0.03 0.03 41 1011.6
20260503004731 55 97 1.0 2.0 0.00 0.03 0.03 41 1011.5
20260503004646 55 112 0.0 1.0 0.00 0.03 0.03 41 1011.7
20260503004522 55 0.0 2.0 0.00 0.03 0.03 40 1011.6
20260503004417 55 56 1.0 2.0 0.00 0.03 0.03 40 1011.7
20260503004329 55 39 1.0 2.0 0.00 0.03 0.03 40 1011.5
20260503004225 55 1 0.0 1.0 0.00 0.03 0.03 41 1011.4
20260503004140 55 0.0 1.0 0.00 0.03 0.03 41 1011.4
20260503004016 55 126 1.0 2.0 0.00 0.03 0.03 41 1011.5
20260503003928 55 128 0.0 2.0 0.00 0.03 0.03 40 1011.4
20260503003823 55 66 2.0 3.0 0.00 0.03 0.03 39 1011.5
20260503003719 55 9 1.0 2.0 0.00 0.03 0.03 39 1011.3
20260503003630 56 95 1.0 2.0 0.00 0.03 0.03 40 1011.5
20260503003546 56 169 1.0 2.0 0.00 0.03 0.03 39 1011.5
20260503003421 56 345 1.0 1.0 0.00 0.03 0.03 40 1011.4
20260503003316 56 0.0 2.0 0.00 0.03 0.03 39 1011.4
20260503003228 56 0.0 2.0 0.00 0.03 0.03 38 1011.2
20260503003124 56 88 1.0 2.0 0.00 0.03 0.03 39 1011.4
20260503003019 56 24 1.0 2.0 0.00 0.03 0.03 39 1011.6
20260503002931 56 358 1.0 2.0 0.00 0.03 0.03 39 1011.4
20260503002827 56 5 1.0 5.0 0.00 0.03 0.03 38 1011.1
20260503002722 56 355 2.0 5.0 0.00 0.03 0.03 38 1011.3
20260503002618 56 294 2.0 4.0 0.00 0.03 0.03 39 1011.3
20260503002529 56 44 1.0 2.0 0.00 0.03 0.03 39 1011.3
20260503002425 56 359 1.0 3.0 0.00 0.03 0.03 39 1011.2
20260503002340 56 77 2.0 3.0 0.00 0.03 0.03 39 1011.3
20260503002216 56 61 2.0 4.0 0.00 0.03 0.03 38 1011.2
20260503002128 56 57 3.0 6.0 0.00 0.03 0.03 38 1011.2
20260503002024 56 25 1.0 1.0 0.00 0.03 0.03 39 1011.4
20260503001919 56 36 1.0 2.0 0.00 0.03 0.03 39 1011.1
20260503001831 56 0.0 2.0 0.00 0.03 0.03 38 1011.3
20260503001726 56 0.0 1.0 0.00 0.03 0.03 39 1011.3
20260503001642 56 74 0.0 1.0 0.00 0.03 0.03 38 1011.2
20260503001537 56 8 0.0 2.0 0.00 0.03 0.03 38 1011.4
20260503001429 56 75 1.0 3.0 0.00 0.03 0.03 38 1011.2
20260503001324 56 3 2.0 3.0 0.00 0.03 0.03 38 1011.4
20260503001220 56 9 2.0 3.0 0.00 0.03 0.03 38 1011.2
20260503001116 56 78 1.0 3.0 0.00 0.03 0.03 38 1011.1
20260503001027 56 66 1.0 3.0 0.00 0.03 0.03 38 1011.1
20260503000923 56 85 2.0 4.0 0.00 0.03 0.03 38 1011.2
20260503000818 56 32 2.0 3.0 0.00 0.03 0.03 38 1011.3
20260503000730 56 244 1.0 2.0 0.00 0.03 0.03 39 1011.2
20260503000626 56 63 1.0 3.0 0.00 0.03 0.03 38 1011.2
20260503000521 56 17 3.0 3.0 0.00 0.03 0.03 38 1011.2
20260503000417 56 295 1.0 2.0 0.00 0.03 0.03 38 1011.1
20260503000328 56 59 1.0 2.0 0.00 0.03 0.03 38 1011.2
20260503000225 56 80 1.0 2.0 0.00 0.03 0.03 38 1011.0
20260503000120 56 346 0.0 2.0 0.00 0.03 0.03 38 1011.2
20260503000015 56 55 1.0 2.0 0.00 0.03 0.03 38 1011.1
20260502235926 56 351 1.0 2.0 0.00 0.03 0.03 38 1011.2
20260502235822 56 45 2.0 4.0 0.00 0.03 0.03 37 1011.1
20260502235717 57 36 2.0 4.0 0.00 0.03 0.03 38 1011.1
20260502235628 57 358 1.0 2.0 0.00 0.03 0.03 38 1011.3
20260502235523 57 28 2.0 4.0 0.00 0.03 0.03 37 1011.3
20260502235419 57 163 1.0 3.0 0.00 0.03 0.03 37 1011.2
20260502235331 57 23 2.0 4.0 0.00 0.03 0.03 37 1011.2
20260502235226 57 57 2.0 3.0 0.00 0.03 0.03 38 1011.0
20260502235121 57 265 1.0 2.0 0.00 0.03 0.03 38 1011.0
20260502235017 57 13 1.0 3.0 0.00 0.03 0.03 37 1011.1
20260502234928 57 9 2.0 4.0 0.00 0.03 0.03 37 1011.1
20260502234824 57 299 1.0 2.0 0.00 0.03 0.03 38 1011.2
20260502234720 57 29 2.0 3.0 0.00 0.03 0.03 37 1011.2
20260502234651 57 358 2.0 3.0 0.00 0.03 0.03 38 1011.1
20260502234527 57 40 3.0 4.0 0.00 0.03 0.03 37 1011.0
20260502234422 57 32 2.0 3.0 0.00 0.03 0.03 37 1011.1
20260502234318 57 21 1.0 2.0 0.00 0.03 0.03 37 1011.1
20260502234309 57 28 2.0 4.0 0.00 0.03 0.03 38 1011.0
20260502234125 57 45 1.0 3.0 0.00 0.03 0.03 38 1011.1
20260502234021 57 91 0.0 2.0 0.00 0.03 0.03 38 1011.2
20260502233916 57 96 2.0 2.0 0.00 0.03 0.03 38 1011.3
20260502233828 57 32 1.0 3.0 0.00 0.03 0.03 38 1011.1
20260502233743 57 52 1.0 2.0 0.00 0.03 0.03 37 1011.1
20260502233619 57 64 2.0 4.0 0.00 0.03 0.03 36 1011.2
20260502233531 57 51 3.0 6.0 0.00 0.03 0.03 36 1011.2
20260502233427 57 68 2.0 3.0 0.00 0.03 0.03 37 1011.1
20260502233322 58 346 2.0 3.0 0.00 0.03 0.03 37 1011.2
20260502233238 58 57 2.0 2.0 0.00 0.03 0.03 37 1011.3
20260502233129 58 353 1.0 4.0 0.00 0.03 0.03 37 1011.3
20260502233105 58 14 3.0 4.0 0.00 0.03 0.03 37 1011.2
20260502232920 58 58 1.0 3.0 0.00 0.03 0.03 37 1011.0
20260502232816 58 205 1.0 3.0 0.00 0.03 0.03 37 1011.2
20260502232727 58 355 2.0 2.0 0.00 0.03 0.03 37 1011.0
20260502232623 58 320 2.0 4.0 0.00 0.03 0.03 37 1011.0
20260502232519 58 344 1.0 2.0 0.00 0.03 0.03 37 1011.0
20260502232430 58 7 2.0 3.0 0.00 0.03 0.03 38 1011.1
20260502232326 58 290 2.0 4.0 0.00 0.03 0.03 37 1011.1
20260502232221 58 344 1.0 3.0 0.00 0.03 0.03 37 1010.9
20260502232117 58 7 2.0 4.0 0.00 0.03 0.03 36 1010.9
20260502232029 58 328 2.0 4.0 0.00 0.03 0.03 37 1011.1
20260502231924 58 83 2.0 3.0 0.00 0.03 0.03 37 1011.0
20260502231820 58 197 1.0 2.0 0.00 0.03 0.03 37 1010.8
20260502231715 58 119 1.0 2.0 0.00 0.03 0.03 37 1011.0
20260502231627 58 343 2.0 3.0 0.00 0.03 0.03 36 1011.1
20260502231543 58 358 2.0 4.0 0.00 0.03 0.03 36 1011.0
20260502231418 58 5 1.0 5.0 0.00 0.03 0.03 36 1010.9
20260502231330 58 35 4.0 6.0 0.00 0.03 0.03 36 1011.1
20260502231225 58 316 2.0 3.0 0.00 0.03 0.03 37 1011.1
20260502231121 58 30 2.0 4.0 0.00 0.03 0.03 36 1011.0
20260502231017 58 352 2.0 4.0 0.00 0.03 0.03 37 1011.0
20260502230928 58 314 3.0 5.0 0.00 0.03 0.03 36 1011.1
20260502230824 58 335 2.0 4.0 0.00 0.03 0.03 36 1011.0
20260502230615 58 351 3.0 6.0 0.00 0.03 0.03 36 1011.2
20260502230527 59 250 2.0 3.0 0.00 0.03 0.03 36 1011.1
20260502230443 59 359 3.0 4.0 0.00 0.03 0.03 36 1011.0
20260502230318 59 357 2.0 4.0 0.00 0.03 0.03 36 1011.1
20260502230230 59 332 1.0 3.0 0.00 0.03 0.03 36 1010.9
20260502230125 59 4 1.0 3.0 0.00 0.03 0.03 36 1011.0
20260502230021 59 18 0.0 2.0 0.00 0.03 0.03 36 1010.9
20260502225916 59 25 1.0 2.0 0.00 0.03 0.03 36 1010.9
20260502225828 59 50 1.0 2.0 0.00 0.03 0.03 35 1011.0
20260502225724 59 349 0.0 2.0 0.00 0.03 0.03 36 1011.0
20260502225639 59 1 1.0 3.0 0.00 0.03 0.03 36 1010.8
20260502225531 59 355 2.0 4.0 0.00 0.03 0.03 36 1010.9
20260502225426 59 60 2.0 4.0 0.00 0.03 0.03 36 1010.8
20260502225322 59 52 2.0 3.0 0.00 0.03 0.03 36 1010.8
20260502225218 59 243 1.0 2.0 0.00 0.03 0.03 36 1010.9
20260502225129 59 322 1.0 2.0 0.00 0.03 0.03 36 1010.9
20260502225024 59 16 2.0 3.0 0.00 0.03 0.03 36 1010.9
20260502224920 59 344 1.0 2.0 0.00 0.03 0.03 36 1010.9
20260502224816 59 34 0.0 2.0 0.00 0.03 0.03 36 1011.0
20260502224728 59 19 2.0 3.0 0.00 0.03 0.03 36 1010.9
20260502224643 59 18 1.0 3.0 0.00 0.03 0.03 36 1010.9
20260502224519 59 224 2.0 4.0 0.00 0.03 0.03 37 1010.9
20260502224450 59 166 2.0 3.0 0.00 0.03 0.03 37 1011.0
20260502224326 59 93 2.0 4.0 0.00 0.03 0.03 36 1010.7
20260502224222 59 80 3.0 4.0 0.00 0.03 0.03 36 1010.7
20260502224137 59 314 1.0 3.0 0.00 0.03 0.03 36 1010.8
20260502224029 59 22 1.0 2.0 0.00 0.03 0.03 36 1010.7
20260502223926 59 353 1.0 4.0 0.00 0.03 0.03 36 1010.6
20260502223819 59 26 2.0 4.0 0.00 0.03 0.03 36 1010.9
20260502223735 59 57 2.0 3.0 0.00 0.03 0.03 36 1010.8
20260502223626 59 30 2.0 4.0 0.00 0.03 0.03 36 1010.8
20260502223542 59 343 2.0 6.0 0.00 0.03 0.03 37 1010.8
20260502223417 59 342 1.0 4.0 0.00 0.03 0.03 36 1010.6
20260502223329 59 353 3.0 5.0 0.00 0.03 0.03 36 1010.7
20260502223224 59 310 2.0 4.0 0.00 0.03 0.03 36 1010.8
20260502223120 59 7 2.0 4.0 0.00 0.03 0.03 36 1010.7
20260502223015 59 332 2.0 4.0 0.00 0.03 0.03 36 1010.7
20260502222927 59 181 2.0 3.0 0.00 0.03 0.03 37 1010.6
20260502222823 59 287 2.0 3.0 0.00 0.03 0.03 38 1010.5
20260502222718 59 204 1.0 3.0 0.00 0.03 0.03 37 1010.6
20260502222630 60 26 2.0 4.0 0.00 0.03 0.03 36 1010.6
20260502222526 60 105 2.0 3.0 0.00 0.03 0.03 37 1010.7
20260502222421 60 21 2.0 3.0 0.00 0.03 0.03 36 1010.6
20260502222317 60 122 2.0 2.0 0.00 0.03 0.03 37 1010.8
20260502222228 60 99 1.0 2.0 0.00 0.03 0.03 36 1010.8
20260502222124 60 187 1.0 2.0 0.00 0.03 0.03 36 1010.8
20260502222039 60 165 1.0 2.0 0.00 0.03 0.03 37 1010.8
20260502221915 60 157 1.0 2.0 0.00 0.03 0.03 37 1010.8
20260502221907 60 194 2.0 3.0 0.00 0.03 0.03 37 1010.8
20260502221742 60 4 1.0 2.0 0.00 0.03 0.03 36 1011.0
20260502221638 60 74 1.0 2.0 0.00 0.03 0.03 36 1010.7
20260502221529 60 101 1.0 2.0 0.00 0.03 0.03 36 1010.8
20260502221426 60 333 2.0 4.0 0.00 0.03 0.03 35 1010.8
20260502221320 60 297 2.0 4.0 0.00 0.03 0.03 36 1010.8
20260502221216 60 281 1.0 2.0 0.00 0.03 0.03 36 1010.7
20260502221127 60 205 1.0 2.0 0.00 0.03 0.03 37 1010.8
20260502221023 60 1 2.0 4.0 0.00 0.03 0.03 36 1010.7
20260502220939 60 41 2.0 4.0 0.00 0.03 0.03 36 1010.8
20260502220830 60 38 2.0 3.0 0.00 0.03 0.03 37 1010.8
20260502220726 60 37 2.0 3.0 0.00 0.03 0.03 36 1010.8
20260502220621 59 78 2.0 2.0 0.00 0.03 0.03 36 1010.8
20260502220536 59 324 2.0 3.0 0.00 0.03 0.03 37 1010.9
20260502220427 59 351 2.0 4.0 0.00 0.03 0.03 36 1010.7
20260502220323 59 45 2.0 4.0 0.00 0.03 0.03 36 1011.0
20260502220239 59 193 1.0 3.0 0.00 0.03 0.03 37 1010.8
20260502220150 59 59 1.0 2.0 0.00 0.03 0.03 37 1010.8
20260502220026 59 345 2.0 4.0 0.00 0.03 0.03 36 1010.8
20260502215922 59 7 2.0 6.0 0.00 0.03 0.03 36 1010.8
20260502215817 60 41 4.0 7.0 0.00 0.03 0.03 35 1010.9
20260502215729 60 16 2.0 4.0 0.00 0.03 0.03 37 1011.1
20260502215625 60 39 3.0 4.0 0.00 0.03 0.03 36 1011.0
20260502215520 60 102 1.0 2.0 0.00 0.03 0.03 37 1010.8
20260502215416 60 37 3.0 4.0 0.00 0.03 0.03 36 1010.7
20260502215347 60 47 2.0 4.0 0.00 0.03 0.03 36 1010.6
20260502215223 60 24 2.0 3.0 0.00 0.03 0.03 35 1010.8
20260502215118 60 331 2.0 3.0 0.00 0.03 0.03 36 1010.8
20260502215030 60 43 1.0 3.0 0.00 0.03 0.03 36 1011.0
20260502214925 60 65 1.0 4.0 0.00 0.03 0.03 35 1010.8
20260502214821 60 67 4.0 6.0 0.00 0.03 0.03 34 1010.7
20260502214717 60 303 1.0 2.0 0.00 0.03 0.03 37 1010.9
20260502214628 60 137 1.0 2.0 0.00 0.03 0.03 38 1010.8
20260502214524 60 19 1.0 3.0 0.00 0.03 0.03 36 1010.9
20260502214419 60 36 0.0 3.0 0.00 0.03 0.03 36 1010.8
20260502214331 60 193 1.0 2.0 0.00 0.03 0.03 36 1010.7
20260502214246 60 209 1.0 2.0 0.00 0.03 0.03 36 1010.5
20260502214142 60 67 3.0 5.0 0.00 0.03 0.03 35 1010.8
20260502214017 60 339 3.0 4.0 0.00 0.03 0.03 36 1010.6
20260502213929 60 171 1.0 2.0 0.00 0.03 0.03 38 1010.7
20260502213845 60 9 2.0 2.0 0.00 0.03 0.03 38 1010.8
20260502213720 60 350 1.0 2.0 0.00 0.03 0.03 37 1010.7
20260502213616 60 22 2.0 6.0 0.00 0.03 0.03 37 1010.6
20260502213547 60 49 2.0 6.0 0.00 0.03 0.03 37 1010.6
20260502213423 60 342 1.0 2.0 0.00 0.03 0.03 38 1010.8
20260502213318 60 69 1.0 2.0 0.00 0.03 0.03 38 1010.6
20260502213230 60 75 0.0 1.0 0.00 0.03 0.03 38 1010.6
20260502213146 60 70 2.0 2.0 0.00 0.03 0.03 37 1010.7
20260502213022 60 134 1.0 2.0 0.00 0.03 0.03 38 1010.6
20260502212917 60 0.0 2.0 0.00 0.03 0.03 37 1010.7
20260502212829 60 338 2.0 3.0 0.00 0.03 0.03 37 1010.5
20260502212724 60 19 1.0 3.0 0.00 0.03 0.03 37 1010.6
20260502212620 60 59 2.0 3.0 0.00 0.03 0.03 37 1010.5
20260502212535 60 241 1.0 2.0 0.00 0.03 0.03 37 1010.5
20260502212427 60 110 1.0 3.0 0.00 0.03 0.03 37 1010.5
20260502212323 60 281 2.0 5.0 0.00 0.03 0.03 37 1010.5
20260502212218 60 350 2.0 4.0 0.00 0.03 0.03 37 1010.5
20260502212130 60 96 2.0 3.0 0.00 0.03 0.03 36 1010.5
20260502212025 60 352 2.0 4.0 0.00 0.03 0.03 36 1010.5
20260502211921 60 23 2.0 3.0 0.00 0.03 0.03 36 1010.5
20260502211816 60 163 1.0 3.0 0.00 0.03 0.03 37 1010.4
20260502211727 60 2 4.0 7.0 0.00 0.03 0.03 36 1010.6
20260502211623 60 3 2.0 4.0 0.00 0.03 0.03 37 1010.6
20260502211519 60 41 2.0 3.0 0.00 0.03 0.03 36 1010.3
20260502211450 60 48 2.0 4.0 0.00 0.03 0.03 37 1010.5
20260502211326 60 330 2.0 4.0 0.00 0.03 0.03 36 1010.5
20260502211222 61 339 2.0 3.0 0.00 0.03 0.03 35 1010.4
20260502211117 61 289 2.0 3.0 0.00 0.03 0.03 37 1010.6
20260502211029 61 20 1.0 2.0 0.00 0.03 0.03 37 1010.4
20260502210925 61 60 0.0 2.0 0.00 0.03 0.03 36 1010.4
20260502210840 61 304 1.0 4.0 0.00 0.03 0.03 35 1010.3
20260502210755 61 319 2.0 4.0 0.00 0.03 0.03 35 1010.3
20260502210627 61 4 1.0 3.0 0.00 0.03 0.03 35 1010.6
20260502210523 61 162 2.0 3.0 0.00 0.03 0.03 35 1010.4
20260502210418 61 225 2.0 3.0 0.00 0.03 0.03 37 1010.3
20260502210330 61 196 1.0 2.0 0.00 0.03 0.03 37 1010.4
20260502210226 61 58 1.0 3.0 0.00 0.03 0.03 35 1010.1
20260502210121 61 38 3.0 5.0 0.00 0.03 0.03 34 1010.3
20260502210016 61 356 2.0 5.0 0.00 0.03 0.03 35 1010.4
20260502205928 62 51 3.0 5.0 0.00 0.03 0.03 35 1010.3
20260502205823 61 274 1.0 2.0 0.00 0.03 0.03 36 1010.4
20260502205719 61 193 2.0 3.0 0.00 0.03 0.03 36 1010.2
20260502205631 61 173 3.0 4.0 0.00 0.03 0.03 36 1010.2
20260502205526 61 185 3.0 4.0 0.00 0.03 0.03 36 1010.3
20260502205442 61 190 4.0 6.0 0.00 0.03 0.03 37 1010.6
20260502205337 61 178 3.0 4.0 0.00 0.03 0.03 38 1010.4
20260502205229 60 75 1.0 2.0 0.00 0.03 0.03 37 1010.4
20260502205125 60 70 2.0 5.0 0.00 0.03 0.03 36 1010.5
20260502205040 61 334 4.0 5.0 0.00 0.03 0.03 35 1010.5
20260502204936 61 337 4.0 7.0 0.00 0.03 0.03 35 1010.4
20260502204827 61 12 2.0 3.0 0.00 0.03 0.03 35 1010.3
20260502204723 61 340 3.0 4.0 0.00 0.03 0.03 36 1010.3
20260502204619 61 305 3.0 4.0 0.00 0.03 0.03 38 1010.3
20260502204610 61 176 2.0 3.0 0.00 0.03 0.03 37 1010.4
20260502204426 61 188 2.0 4.0 0.00 0.03 0.03 37 1010.2
20260502204342 61 194 3.0 3.0 0.00 0.03 0.03 37 1010.4
20260502204217 61 312 2.0 4.0 0.00 0.03 0.03 36 1010.3
20260502204128 61 346 2.0 4.0 0.00 0.03 0.03 36 1010.4
20260502204024 61 306 2.0 4.0 0.00 0.03 0.03 36 1010.3
20260502203920 61 45 3.0 4.0 0.00 0.03 0.03 38 1010.4
20260502203815 61 298 2.0 4.0 0.00 0.03 0.03 38 1010.6
20260502203727 61 314 2.0 6.0 0.00 0.03 0.03 37 1010.4
20260502203623 61 342 2.0 5.0 0.00 0.03 0.03 38 1010.3
20260502203518 60 70 1.0 3.0 0.00 0.03 0.03 38 1010.4
20260502203430 60 339 2.0 3.0 0.00 0.03 0.03 36 1010.4
20260502203405 60 12 1.0 3.0 0.00 0.03 0.03 36 1010.5
20260502203221 60 25 2.0 4.0 0.00 0.03 0.03 36 1010.5
20260502203116 60 63 3.0 6.0 0.00 0.03 0.03 36 1010.4
20260502203028 60 61 2.0 4.0 0.00 0.03 0.03 36 1010.6
20260502202924 60 16 2.0 4.0 0.00 0.03 0.03 36 1010.6
20260502202819 60 25 2.0 4.0 0.00 0.03 0.03 37 1010.6
20260502202731 60 26 3.0 4.0 0.00 0.03 0.03 37 1010.6
20260502202627 60 3 2.0 3.0 0.00 0.03 0.03 38 1010.8
20260502202522 60 32 3.0 6.0 0.00 0.03 0.03 37 1010.7
20260502202438 60 24 4.0 6.0 0.00 0.03 0.03 37 1010.6
20260502202329 60 29 5.0 7.0 0.00 0.03 0.03 36 1010.6
20260502202225 60 24 3.0 5.0 0.00 0.03 0.03 37 1010.6
20260502202141 60 12 2.0 3.0 0.00 0.03 0.03 37 1010.8
20260502202016 60 359 2.0 3.0 0.00 0.03 0.03 37 1010.7
20260502201928 60 50 3.0 4.0 0.00 0.03 0.03 36 1010.6
20260502201823 60 333 2.0 4.0 0.00 0.03 0.03 37 1010.6
20260502201719 60 344 2.0 3.0 0.00 0.03 0.03 37 1010.8
20260502201631 60 355 3.0 5.0 0.00 0.03 0.03 36 1010.7
20260502201526 61 49 3.0 5.0 0.00 0.03 0.03 35 1010.8
20260502201421 61 4 2.0 4.0 0.00 0.03 0.03 36 1010.6
20260502201317 61 9 3.0 5.0 0.00 0.03 0.03 36 1010.7
20260502201249 61 357 2.0 4.0 0.00 0.03 0.03 36 1010.8
20260502201124 61 263 2.0 8.0 0.00 0.03 0.03 37 1010.8
20260502201020 61 283 2.0 3.0 0.00 0.03 0.03 37 1010.8
20260502200956 61 342 1.0 2.0 0.00 0.03 0.03 36 1010.7
20260502200847 61 45 1.0 2.0 0.00 0.03 0.03 36 1010.8
20260502200723 61 241 2.0 3.0 0.00 0.03 0.03 36 1010.6
20260502200619 61 356 1.0 2.0 0.00 0.03 0.03 35 1010.6
20260502200530 61 345 2.0 4.0 0.00 0.03 0.03 37 1010.8
20260502200426 61 173 2.0 3.0 0.00 0.03 0.03 36 1010.9
20260502200321 61 189 2.0 4.0 0.00 0.03 0.03 37 1010.8
20260502200217 61 108 1.0 3.0 0.00 0.03 0.03 37 1010.7
20260502200128 62 323 2.0 3.0 0.00 0.03 0.03 35 1010.8
20260502200044 62 181 2.0 3.0 0.00 0.03 0.03 36 1010.7
20260502195920 62 304 2.0 3.0 0.00 0.03 0.03 35 1010.8
20260502195815 62 92 2.0 3.0 0.00 0.03 0.03 34 1010.8
20260502195727 62 350 2.0 3.0 0.00 0.03 0.03 35 1010.9
20260502195622 62 325 3.0 4.0 0.00 0.03 0.03 36 1010.8
20260502195518 62 36 1.0 3.0 0.00 0.03 0.03 35 1010.9
20260502195430 63 59 2.0 3.0 0.00 0.03 0.03 35 1011.0
20260502195325 62 271 1.0 3.0 0.00 0.03 0.03 36 1011.0
20260502195221 62 3 2.0 4.0 0.00 0.03 0.03 34 1010.9
20260502195116 62 332 3.0 6.0 0.00 0.03 0.03 36 1010.9
20260502195048 62 349 4.0 6.0 0.00 0.03 0.03 36 1010.9
20260502194923 62 38 3.0 6.0 0.00 0.03 0.03 37 1010.9
20260502194819 62 46 2.0 4.0 0.00 0.03 0.03 34 1011.0
20260502194731 62 35 3.0 5.0 0.00 0.03 0.03 35 1010.9
20260502194626 62 48 4.0 6.0 0.00 0.03 0.03 34 1011.0
20260502194522 63 20 2.0 3.0 0.00 0.03 0.03 35 1011.0
20260502194417 63 12 2.0 3.0 0.00 0.03 0.03 35 1011.1
20260502194329 63 20 2.0 3.0 0.00 0.03 0.03 36 1011.1
20260502194245 63 331 3.0 5.0 0.00 0.03 0.03 35 1011.0
20260502194140 63 13 1.0 4.0 0.00 0.03 0.03 35 1011.0
20260502194016 63 62 2.0 4.0 0.00 0.03 0.03 34 1011.2
20260502193927 63 92 1.0 3.0 0.00 0.03 0.03 34 1010.9
20260502193843 64 17 1.0 3.0 0.00 0.03 0.03 34 1011.1
20260502193718 63 219 3.0 4.0 0.00 0.03 0.03 34 1011.2
20260502193630 63 314 2.0 4.0 0.00 0.03 0.03 37 1011.1
20260502193526 63 40 1.0 3.0 0.00 0.03 0.03 38 1011.0
20260502193421 62 71 2.0 4.0 0.00 0.03 0.03 36 1011.0
20260502193317 62 50 1.0 3.0 0.00 0.03 0.03 35 1011.1
20260502193248 62 312 2.0 5.0 0.00 0.03 0.03 36 1011.2
20260502193124 62 201 2.0 4.0 0.00 0.03 0.03 34 1011.3
20260502193040 62 219 3.0 4.0 0.00 0.03 0.03 36 1011.1
20260502192915 62 331 2.0 6.0 0.00 0.03 0.03 36 1011.2
20260502192827 62 320 5.0 9.0 0.00 0.03 0.03 35 1011.4
20260502192723 62 341 3.0 6.0 0.00 0.03 0.03 37 1011.0
20260502192618 63 11 4.0 6.0 0.00 0.03 0.03 37 1011.3
20260502192530 63 300 2.0 5.0 0.00 0.03 0.03 35 1011.2
20260502192425 63 354 3.0 4.0 0.00 0.03 0.03 37 1011.1
20260502192321 63 10 2.0 4.0 0.00 0.03 0.03 35 1011.1
20260502192216 63 324 3.0 7.0 0.00 0.03 0.03 37 1011.3
20260502192128 63 42 3.0 5.0 0.00 0.03 0.03 36 1011.2
20260502192024 63 350 3.0 6.0 0.00 0.03 0.03 37 1011.4
20260502191919 63 332 5.0 6.0 0.00 0.03 0.03 36 1011.2
20260502191815 63 295 3.0 6.0 0.00 0.03 0.03 36 1011.2
20260502191727 63 351 3.0 7.0 0.00 0.03 0.03 37 1011.5
20260502191622 63 1 2.0 3.0 0.00 0.03 0.03 36 1011.5
20260502191518 63 268 2.0 4.0 0.00 0.03 0.03 36 1011.6
20260502191430 64 212 1.0 4.0 0.00 0.03 0.03 36 1011.5
20260502191325 64 209 3.0 4.0 0.00 0.03 0.03 38 1011.5